FLOCK 4Y-32 (55021 NORAD) Tracking and Keplerian Element Data

This shows tracking and keplerian element data for the satellite.

Feedback or suggestion? Click here.




ElementValue
Catalog55021
NameFLOCK 4Y-32
Epoch Orbit1245
Epoch Day84.92030398
Epoch Year2023
RAAN145.7026
Inclination97.4859
Eccentricity0.0009621
Argument of Perigee297.6923
Mean Anonmoly62.3333
Mean Motion15.15699717
Decay Rate0.00037437
L11 55021U 23001N 23084.92030398 .00037437 00000+0 19587-2 0 9995
L22 55021 97.4859 145.7026 0009621 297.6923 62.3333 15.15699717 12451



Live tracking and technical data element details for FLOCK 4Y-32 (NORAD 55021). FLOCK 4Y-32 can be tracked NOW for your location showing map with azimuth and elevation plus other details from your city location.







IsCatalogInMostPopularTable: catalog: 55021, numindb: 9
Update: records affected: 1



GetName: 55021 FLOCK 4Y-32

Hit Count: updated at: Mon, 27 Mar 2023 07:15:14 GMT